Regional Weather Roundup
Issued by NWS

Home | Current Version | Previous Version | Text Only | Print | Product List | Glossary Off
Versions: 1 2 3 4 5 6 7 8 9 10 11 12 13 14 15 16 17 18 19 20 21 22 23 24 25 26 27 28 29 30 31 32 33 34 35 36 37 38 39 40 41 42 43 44 45 46 47 48 49 50

000
ASUS43 KIND 211309
RWRIN

WEATHER ROUNDUP FOR INDIANA
NATIONAL WEATHER SERVICE INDIANAPOLIS IN
800 AM EST SAT JAN 21 2017

NOTE: "FAIR" INDICATES FEW OR NO CLOUDS BELOW 12,000 FEET WITH NO
SIGNIFICANT WEATHER AND/OR OBSTRUCTIONS TO VISIBILITY.

* - STATION DOES NOT REPORT WEATHER SUCH AS PRECIPITATION OR FOG.

+ - STATION NOT QUALITY CONTROLLED BY THE NATIONAL WEATHER SERVICE.
    USE DATA WITH CAUTION...ESPECIALLY DEWPOINT AND RELATIVE
    HUMIDITY OBSERVATIONS.

INZ001>003-010>013-019-020-211400-
NORTHWEST INDIANA

CITY           SKY/WX    TMP DP  RH WIND       PRES   REMARKS
GARY /AIRPORT/ FOG       50  48  93 SE8       29.56S VSB 1
KNOX *+        CLEAR     46  39  76 SE12      29.59S
LA PORTE +     CLOUDY    46  46 100 SE6       29.59F FOG
MICHIGAN CITY+ CLOUDY    50  50 100 S10       29.59S
MONTICELLO +   CLEAR     47  46  95 SE5       29.60F FOG
RENSSELAER +   MOCLDY    46  46 100 S7        29.58F FOG
VALPARAISO     CLOUDY    50  49  96 S8        29.59R FOG

$$

LMZ046-743>745-211400-
SOUTHERN LAKE MICHIGAN

STATION/POSITION TIME  TEMP    WIND        PRES    WAVE
                       AIR SEA DIR/SP/G            HT
                 (UTC) (F)     (DEG/KT/KT) (MB)    (FT)
BURNS HARBOR     1240   51     170/ 11/ 17 1002.0S

$$

INZ004-005-014>016-021>024-211400-
NORTH CENTRAL INDIANA

CITY           SKY/WX    TMP DP  RH WIND       PRES   REMARKS
ELKHART        CLOUDY    48  46  93 S12       29.62  FOG
GOSHEN         CLOUDY    48  45  89 SE8       29.63S FOG
LOGANSPORT +   CLEAR     46  45  93 S8        29.63S FOG
PERU/GRISSOM   PTCLDY    46  46 100 S8        29.61F
ROCHESTER +    CLEAR     50  50 100 SE6       29.62F FOG
SOUTH BEND     CLOUDY    48  47  96 SE10      29.61S
WARSAW +       CLOUDY    48  46  93 S5        29.65R FOG

$$

INZ006>009-017-018-025>027-211400-
NORTHEAST INDIANA

CITY           SKY/WX    TMP DP  RH WIND       PRES   REMARKS
ANGOLA *+      CLOUDY    43  43 100 S5        29.65S VSB 1/4
AUBURN +       FOG       43  43 100 CALM      29.67R VSB 1/2
FORT WAYNE     PTCLDY    46  42  86 SE9       29.66S
HUNTINGTON +   PTCLDY    47  46  96 S3        29.66S
KENDALLVILLE +   N/A     45  45 100 S8        29.65S FOG

$$

INZ028-029-035-036-043>045-051>053-211400-
WEST CENTRAL INDIANA

CITY           SKY/WX    TMP DP  RH WIND       PRES   REMARKS
CRAWFORDSVL +  PTCLDY    45  45 100 SE8       29.61F FOG
GREENCASTLE +  FOG       43  43 100 SE6       29.63F VSB 1/2
LAFAYETTE      CLEAR     47  47 100 VRB3      29.60F FOG
TERRE HAUTE    CLOUDY    47  46  97 SE3       29.62F FOG

$$

INZ030>032-037>040-046>048-054>057-064-065-211400-
CENTRAL INDIANA

CITY           SKY/WX    TMP DP  RH WIND       PRES   REMARKS
CP ATTERBURY + FOG       46  45  93 SE3       29.66F VSB 1
COLUMBUS       CLEAR     46  46 100 S5        29.67F
FISHERS *+     CLEAR     46  46 100 S7        29.64F
FRANKFORT +    CLEAR     50  49  97 S6        29.63F FOG
GREENWOOD *+   PTCLDY    48  48 100 SE3       29.65F
INDIANAPOLIS   PTCLDY    45  44  97 SE7       29.63F FOG
-EAGLE CREEK   PTCLDY    48  46  93 SE5       29.63F FOG
KOKOMO +       CLEAR     47  46  97 S9        29.64S FOG
MARION +       CLEAR     45  45 100 SE3       29.66S FOG
MT COMFORT *+  CLEAR     46  46 100 S9        29.65F
SHELBYVILLE    CLOUDY    51  47  86 S7        29.65F
ZIONSVILLE +   CLOUDY    47  47  98 S5        29.64F FOG

$$

INZ033-034-041-042-049-050-058-059-211400-
EAST CENTRAL INDIANA

CITY           SKY/WX    TMP DP  RH WIND       PRES   REMARKS
MUNCIE         CLEAR     50  47  89 S5        29.66S

$$

INZ060-061-067>069-081>083-085>088-211400-
SOUTHWEST INDIANA

CITY           SKY/WX    TMP DP  RH WIND       PRES   REMARKS
EVANSVILLE     CLOUDY    51  48  89 CALM      29.66S
HUNTINGBURG *+ PTCLDY    54  50  86 SE8       29.66F
WASHINGTON +   PTCLDY   N/A N/A N/A S13       29.64R

$$

INZ062-063-066-070>080-084-089>092-211400-
SOUTH CENTRAL AND SOUTHEAST INDIANA

CITY           SKY/WX    TMP DP  RH WIND       PRES   REMARKS
BLOOMINGTON    PTCLDY    49  46  90 SE7       29.63F FOG
MADISON *+     PTCLDY    48  46  93 SE6       29.72R
NORTH VERNON + MOCLDY   N/A N/A N/A CALM      29.68F
SEYMOUR +      CLOUDY    50  48  93 SE8       29.68F

$$




USA.gov is the U.S. government's official web portal to all federal, state and local government web resources and services.